N5RML-1 Weather Reports


Display with metric or nautical units.
time (UTC)temp
F
wind
direction
speed
MPH
gust
MPH
rain 1hr
in
rain 24hr
in
rain mn
in
humidity
%
barometer
mb
20260505015531 70 152 3.0 5.0 0.00 0.00 0.00 58 1015.6
20260505014520 71 150 4.0 6.0 0.00 0.00 0.00 58 1015.4
20260505013528 71 149 3.0 5.0 0.00 0.00 0.00 57 1015.3
20260505012557 71 147 2.0 3.0 0.00 0.00 0.00 56 1015.5
20260505011526 71 154 2.0 4.0 0.00 0.00 0.00 55 1015.2
20260505010534 72 150 3.0 5.0 0.00 0.00 0.00 54 1015.3
20260505005524 72 159 4.0 5.0 0.00 0.00 0.00 53 1015.5
20260505004533 72 150 4.0 6.0 0.00 0.00 0.00 53 1015.7
20260505003521 73 164 3.0 5.0 0.00 0.00 0.00 52 1015.5
20260505002549 73 166 2.0 3.0 0.00 0.00 0.00 51 1015.6
20260505001536 73 168 4.0 8.0 0.00 0.00 0.00 51 1015.7
20260505000527 74 143 5.0 7.0 0.00 0.00 0.00 50 1015.6
20260504235533 75 159 4.0 6.0 0.00 0.00 0.00 48 1015.5
20260504234523 76 156 4.0 7.0 0.00 0.00 0.00 46 1015.7
20260504233552 78 155 4.0 6.0 0.00 0.00 0.00 43 1015.8
20260504232520 79 184 3.0 5.0 0.00 0.00 0.00 43 1015.9
20260504231548 79 150 4.0 6.0 0.00 0.00 0.00 41 1016.0
20260504230557 78 165 4.0 6.0 0.00 0.00 0.00 40 1015.9
20260504225528 78 173 5.0 8.0 0.00 0.00 0.00 41 1016.0
20260504224533 78 172 4.0 6.0 0.00 0.00 0.00 40 1016.1
20260504223523 79 184 4.0 6.0 0.00 0.00 0.00 39 1016.3
20260504222551 78 183 2.0 3.0 0.00 0.00 0.00 40 1016.2
20260504221520 78 175 5.0 7.0 0.00 0.00 0.00 38 1016.5
20260504220528 79 159 5.0 9.0 0.00 0.00 0.00 39 1016.5
20260504215537 79 252 4.0 6.0 0.00 0.00 0.00 40 1016.3
20260504214526 79 214 4.0 6.0 0.00 0.00 0.00 40 1016.4
20260504213535 79 170 4.0 7.0 0.00 0.00 0.00 39 1016.4
20260504212543 80 171 6.0 9.0 0.00 0.00 0.00 37 1016.5
20260504211530 80 176 4.0 5.0 0.00 0.00 0.00 36 1016.7
20260504210520 80 177 4.0 8.0 0.00 0.00 0.00 35 1016.5
20260504205529 80 159 5.0 8.0 0.00 0.00 0.00 35 1016.6
20260504204537 80 152 4.0 7.0 0.00 0.00 0.00 35 1016.9
20260504203525 80 152 6.0 11.0 0.00 0.00 0.00 36 1017.0
20260504202554 80 172 4.0 8.0 0.00 0.00 0.00 36 1017.1
20260504201523 80 144 6.0 10.0 0.00 0.00 0.00 35 1017.4
20260504200531 80 163 5.0 8.0 0.00 0.00 0.00 36 1017.5
20260504195521 80 172 6.0 8.0 0.00 0.00 0.00 36 1017.8
20260504194528 80 172 6.0 11.0 0.00 0.00 0.00 35 1017.9
20260504193536 81 183 4.0 6.0 0.00 0.00 0.00 36 1017.9
20260504192525 80 191 5.0 9.0 0.00 0.00 0.00 38 1018.1
20260504191535 81 156 6.0 8.0 0.00 0.00 0.00 37 1018.0
20260504190523 81 219 5.0 8.0 0.00 0.00 0.00 37 1018.1
20260504185531 81 209 4.0 7.0 0.00 0.00 0.00 38 1018.3
20260504184520 81 142 5.0 8.0 0.00 0.00 0.00 38 1018.4
20260504183528 82 197 6.0 9.0 0.00 0.00 0.00 37 1018.6
20260504182556 81 159 3.0 5.0 0.00 0.00 0.00 37 1018.5
20260504181546 81 172 4.0 7.0 0.00 0.00 0.00 37 1018.5
20260504180535 80 181 4.0 7.0 0.00 0.00 0.00 36 1018.6
20260504175522 81 193 5.0 8.0 0.00 0.00 0.00 35 1018.6
20260504174531 80 195 4.0 7.0 0.00 0.00 0.00 36 1018.9
20260504173541 81 157 4.0 10.0 0.00 0.00 0.00 36 1018.9
20260504172528 81 174 4.0 7.0 0.00 0.00 0.00 35 1018.8
20260504171539 80 136 4.0 8.0 0.00 0.00 0.00 36 1019.0
20260504170525 79 160 5.0 7.0 0.00 0.00 0.00 37 1018.8
20260504150528 76 203 0.0 1.0 0.00 0.00 0.00 46 1019.6
20260504140521 77 30 0.0 2.0 0.00 0.00 0.00 50 1019.7
20260504130533 63 0.0 0.0 0.00 0.00 0.00 72 1019.8
20260504110535 55 0.0 0.0 0.00 0.00 0.00 82 1019.0
20260504100548 57 0.0 0.0 0.00 0.00 0.00 79 1019.2
20260504081523 57 0.0 0.0 0.00 0.00 0.00 79 1019.0
20260504080534 58 0.0 0.0 0.00 0.00 0.00 76 1019.1
20260504050527 63 113 0.0 1.0 0.00 0.00 0.00 69 1020.7
20260504045535 63 0.0 2.0 0.00 0.00 0.00 69 1020.7
20260504044524 64 158 0.0 2.0 0.00 0.00 0.00 68 1020.8
20260504043532 64 167 0.0 2.0 0.00 0.00 0.00 67 1021.0
20260504042521 64 168 1.0 2.0 0.00 0.00 0.00 66 1021.0
20260504041530 64 209 1.0 3.0 0.00 0.00 0.00 63 1021.0
20260504040618 65 135 0.0 2.0 0.00 0.00 0.00 61 1020.9
20260504035528 66 136 1.0 3.0 0.00 0.00 0.00 59 1020.7
20260504034557 66 144 2.0 3.0 0.00 0.00 0.00 58 1020.8
20260504033524 66 149 1.0 2.0 0.00 0.00 0.00 57 1020.8
20260504032533 66 0.0 0.0 0.00 0.00 0.00 56 1020.9
20260504031521 67 143 1.0 3.0 0.00 0.00 0.00 55 1020.9
20260504030550 67 159 2.0 4.0 0.00 0.00 0.00 55 1020.9
20260504025520 66 0.0 0.0 0.00 0.00 0.00 55 1020.8
20260504024527 67 161 1.0 3.0 0.00 0.00 0.00 53 1020.6
20260504023535 66 0.0 0.0 0.00 0.00 0.00 53 1020.6
20260504022524 66 142 1.0 3.0 0.00 0.00 0.00 53 1020.5
20260504021533 66 0.0 0.0 0.00 0.00 0.00 55 1020.5
20260504020525 67 0.0 0.0 0.00 0.00 0.00 55 1020.3